• In Hungary
  • List of Countries
  • For 7 days
  • Water Temperature
  • Satellite Maps
  • Weather Map
  • News
  • Weather Widgets
  • user-avatar
    Login

    Hourly Weather Sumgayit

    Today, 20 May, Sunday

    Time Temperature Precipitation Wind Pressure Humidity
    00:00 +21°C° 0 mm 2 mps 741 mmHg 43%
    01:00 +20°C° 0 mm 2 mps 741 mmHg 43%
    02:00 +20°C° 0 mm 2 mps 741 mmHg 43%
    03:00 +20°C° 0 mm 2 mps 740 mmHg 43%
    04:00 +20°C° 0 mm 2 mps 740 mmHg 42%
    05:00 +21°C° 0 mm 2 mps 741 mmHg 41%
    06:00 +21°C° 0 mm 3 mps 741 mmHg 40%
    07:00 +24°C° 0 mm 3 mps 741 mmHg 37%
    08:00 +25°C° 0 mm 4 mps 741 mmHg 34%
    09:00 +27°C° 0 mm 5 mps 741 mmHg 30%
    10:00 +28°C° 0 mm 5 mps 740 mmHg 28%
    11:00 +28°C° 0 mm 6 mps 740 mmHg 27%
    12:00 +29°C° 0 mm 6 mps 740 mmHg 25%
    13:00 +29°C° 0 mm 7 mps 740 mmHg 25%
    14:00 +29°C° 0 mm 7 mps 740 mmHg 25%
    15:00 +29°C° 0 mm 6 mps 740 mmHg 25%
    16:00 +28°C° 0 mm 6 mps 740 mmHg 26%
    17:00 +28°C° 0 mm 5 mps 740 mmHg 28%
    18:00 +27°C° 0 mm 5 mps 740 mmHg 30%
    19:00 +26°C° 0 mm 4 mps 740 mmHg 33%
    20:00 +25°C° 0 mm 3 mps 740 mmHg 36%
    21:00 +24°C° 0 mm 2 mps 740 mmHg 39%
    22:00 +24°C° 0 mm 2 mps 739 mmHg 39%
    23:00 +23°C° 0 mm 2 mps 739 mmHg 38%

    Tomorrow, 21 May, Monday

    Time Temperature Precipitation Wind Pressure Humidity
    00:00 +23°C° 0 mm 2 mps 739 mmHg 38%
    01:00 +23°C° 0 mm 2 mps 739 mmHg 37%
    02:00 +23°C° 0 mm 2 mps 739 mmHg 37%
    03:00 +23°C° 0 mm 2 mps 739 mmHg 36%
    04:00 +23°C° 0 mm 2 mps 739 mmHg 38%
    05:00 +23°C° 0 mm 2 mps 739 mmHg 39%
    06:00 +24°C° 0 mm 2 mps 740 mmHg 41%
    07:00 +25°C° 0 mm 3 mps 740 mmHg 38%
    08:00 +26°C° 0 mm 3 mps 740 mmHg 35%
    09:00 +27°C° 0 mm 3 mps 740 mmHg 33%
    10:00 +28°C° 0 mm 4 mps 740 mmHg 29%
    11:00 +29°C° 0 mm 4 mps 740 mmHg 26%
    12:00 +30°C° 0 mm 4 mps 740 mmHg 23%
    13:00 +30°C° 0 mm 5 mps 740 mmHg 22%
    14:00 +30°C° 0 mm 5 mps 740 mmHg 22%
    15:00 +32°C° 0 mm 5 mps 740 mmHg 22%
    16:00 +30°C° 0 mm 5 mps 739 mmHg 24%
    17:00 +29°C° 0 mm 5 mps 739 mmHg 25%
    18:00 +28°C° 0 mm 4 mps 739 mmHg 27%
    19:00 +27°C° 0 mm 3 mps 739 mmHg 30%
    20:00 +26°C° 0 mm 2 mps 739 mmHg 34%
    21:00 +25°C° 0 mm 1 mps 740 mmHg 38%
    22:00 +24°C° 0 mm 1 mps 740 mmHg 38%
    23:00 +24°C° 0 mm 1 mps 740 mmHg 39%

    Day after tomorrow, 22 May, Tuesday

    Time Temperature Precipitation Wind Pressure Humidity
    00:00 +23°C° 0 mm 1 mps 740 mmHg 39%
    01:00 +23°C° 0 mm 2 mps 740 mmHg 40%
    02:00 +23°C° 0 mm 2 mps 740 mmHg 40%
    03:00 +21°C° 0 mm 2 mps 740 mmHg 40%
    04:00 +23°C° 0 mm 2 mps 740 mmHg 40%
    05:00 +24°C° 0 mm 2 mps 741 mmHg 39%
    06:00 +24°C° 0 mm 1 mps 741 mmHg 39%
    07:00 +25°C° 0 mm 2 mps 741 mmHg 35%
    08:00 +27°C° 0 mm 2 mps 742 mmHg 32%
    09:00 +28°C° 0 mm 3 mps 742 mmHg 29%
    10:00 +29°C° 0 mm 3 mps 742 mmHg 28%
    11:00 +29°C° 0 mm 4 mps 742 mmHg 27%
    12:00 +30°C° 0 mm 4 mps 742 mmHg 27%
    13:00 +30°C° 0 mm 4 mps 742 mmHg 26%
    14:00 +30°C° 0 mm 5 mps 742 mmHg 26%
    15:00 +30°C° 0 mm 5 mps 742 mmHg 26%
    16:00 +30°C° 0 mm 5 mps 742 mmHg 28%
    17:00 +29°C° 0 mm 4 mps 742 mmHg 29%
    18:00 +28°C° 0 mm 4 mps 741 mmHg 31%
    19:00 +27°C° 0 mm 4 mps 742 mmHg 33%
    20:00 +26°C° 0 mm 3 mps 742 mmHg 35%
    21:00 +25°C° 0 mm 3 mps 742 mmHg 36%
    22:00 +25°C° 0 mm 3 mps 742 mmHg 36%
    23:00 +25°C° 0 mm 3 mps 742 mmHg 36%

    23 May, Wednesday

    Time Temperature Precipitation Wind Pressure Humidity
    00:00 +24°C° 0 mm 3 mps 742 mmHg 35%
    01:00 +24°C° 0 mm 3 mps 741 mmHg 36%
    02:00 +24°C° 0 mm 3 mps 741 mmHg 36%
    03:00 +22°C° 0 mm 3 mps 741 mmHg 37%
    04:00 +24°C° 0 mm 3 mps 741 mmHg 36%
    05:00 +24°C° 0 mm 3 mps 741 mmHg 36%
    06:00 +24°C° 0 mm 3 mps 741 mmHg 36%
    07:00 +26°C° 0 mm 3 mps 742 mmHg 32%
    08:00 +27°C° 0 mm 3 mps 742 mmHg 29%
    09:00 +29°C° 0 mm 3 mps 742 mmHg 26%
    10:00 +30°C° 0 mm 4 mps 742 mmHg 24%
    11:00 +30°C° 0 mm 4 mps 742 mmHg 23%
    12:00 +32°C° 0 mm 4 mps 742 mmHg 21%
    13:00 +32°C° 0 mm 4 mps 741 mmHg 22%
    14:00 +32°C° 0 mm 5 mps 741 mmHg 22%
    15:00 +32°C° 0 mm 5 mps 741 mmHg 23%
    16:00 +30°C° 0 mm 5 mps 741 mmHg 24%
    17:00 +29°C° 0 mm 4 mps 741 mmHg 25%
    18:00 +29°C° 0 mm 4 mps 740 mmHg 27%
    19:00 +27°C° 0 mm 4 mps 740 mmHg 27%
    20:00 +26°C° 0 mm 4 mps 740 mmHg 28%
    21:00 +25°C° 0 mm 3 mps 740 mmHg 29%
    22:00 +25°C° 0 mm 4 mps 740 mmHg 28%
    23:00 +23°C° 0 mm 4 mps 740 mmHg 26%

    24 May, Thursday

    Time Temperature Precipitation Wind Pressure Humidity
    00:00 +23°C° 0 mm 4 mps 740 mmHg 25%
    01:00 +23°C° 0 mm 4 mps 739 mmHg 29%
    02:00 +22°C° 0 mm 5 mps 739 mmHg 33%
    03:00 +22°C° 0 mm 5 mps 739 mmHg 38%
    04:00 +22°C° 0 mm 5 mps 739 mmHg 40%
    05:00 +22°C° 0 mm 5 mps 739 mmHg 42%
    06:00 +22°C° 0 mm 5 mps 739 mmHg 44%
    07:00 +23°C° 0 mm 5 mps 739 mmHg 41%
    08:00 +25°C° 0 mm 5 mps 739 mmHg 38%
    09:00 +26°C° 0 mm 5 mps 739 mmHg 35%
    10:00 +27°C° 0 mm 4 mps 739 mmHg 33%
    11:00 +27°C° 0 mm 4 mps 738 mmHg 31%
    12:00 +28°C° 0 mm 4 mps 738 mmHg 29%
    13:00 +28°C° 0 mm 5 mps 738 mmHg 27%
    14:00 +28°C° 0 mm 5 mps 737 mmHg 26%
    15:00 +29°C° 0 mm 6 mps 737 mmHg 24%
    16:00 +28°C° 0 mm 5 mps 737 mmHg 25%
    17:00 +28°C° 0 mm 5 mps 737 mmHg 25%
    18:00 +27°C° 0 mm 4 mps 736 mmHg 26%
    19:00 +26°C° 0 mm 4 mps 736 mmHg 29%
    20:00 +25°C° 0 mm 3 mps 736 mmHg 32%
    21:00 +24°C° 0 mm 2 mps 736 mmHg 35%
    22:00 +23°C° 0 mm 2 mps 736 mmHg 37%
    23:00 +23°C° 0 mm 2 mps 736 mmHg 39%

    25 May, Friday

    Time Temperature Precipitation Wind Pressure Humidity
    00:00 +21°C° 0 mm 2 mps 735 mmHg 41%
    01:00 +21°C° 0 mm 2 mps 735 mmHg 41%
    02:00 +21°C° 0 mm 1 mps 735 mmHg 41%
    03:00 +21°C° 0 mm 1 mps 734 mmHg 41%
    04:00 +22°C° 0 mm 1 mps 735 mmHg 39%
    05:00 +23°C° 0 mm 1 mps 735 mmHg 36%
    06:00 +24°C° 0 mm 1 mps 735 mmHg 34%
    07:00 +25°C° 0 mm 2 mps 735 mmHg 32%
    08:00 +26°C° 0 mm 2 mps 735 mmHg 29%
    09:00 +27°C° 0 mm 3 mps 736 mmHg 27%
    10:00 +28°C° 0 mm 3 mps 735 mmHg 25%
    11:00 +29°C° 0 mm 3 mps 735 mmHg 24%
    12:00 +30°C° 0 mm 4 mps 735 mmHg 23%
    13:00 +30°C° 0 mm 5 mps 735 mmHg 23%
    14:00 +30°C° 0 mm 5 mps 735 mmHg 24%
    15:00 +30°C° 0 mm 6 mps 735 mmHg 24%
    16:00 +29°C° 0 mm 6 mps 735 mmHg 26%
    17:00 +28°C° 0 mm 5 mps 735 mmHg 28%
    18:00 +27°C° 0 mm 5 mps 735 mmHg 30%
    19:00 +26°C° 0 mm 4 mps 735 mmHg 34%
    20:00 +25°C° 0 mm 3 mps 735 mmHg 38%
    21:00 +24°C° 0 mm 2 mps 735 mmHg 43%
    22:00 +23°C° 0 mm 2 mps 735 mmHg 45%
    23:00 +23°C° 0 mm 2 mps 735 mmHg 47%
    Show more